Location: Matrei
(47.1333°N, 11.4500°E)
Time: 01:08:03
(UTC+00:00)

Daily predictions for brighter satellites

Satellite Brightness Start Highest point End
(mag) Time Altitude Azimuth Time Altitude Azimuth Time Altitude Azimuth
STARLINK-1268 3.4 00:04:28 47° E 00:04:28 47° E 00:06:56 10° ENE
STARLINK-1301 3.4 00:03:56 56° S 00:04:14 59° SE 00:08:02 10° ENE
STARLINK-1303 3.3 00:05:53 57° SSE 00:06:06 58° SE 00:09:48 10° ENE
Cosmos 1570 Rocket 4.0 00:04:53 37° SSW 00:07:04 89° WNW 00:12:24 10° NNE
Cosmos 1400 Rocket 3.6 00:03:13 10° N 00:07:15 48° ENE 00:09:10 27° SE
STARLINK-66 2.8 00:07:08 81° WSW 00:07:17 88° NNW 00:10:30 10° ENE
Cosmos 1709 Rocket 3.9 00:05:05 33° SSW 00:08:03 85° W 00:14:18 10° N
Cosmos 1763 Rocket 3.8 00:05:57 30° SW 00:08:17 55° WNW 00:13:17 10° NNE
Cosmos 2227 Rocket 3.2 00:04:00 10° NW 00:08:49 29° WSW 00:10:11 26° SW
STARLINK-1316 3.1 00:09:23 58° ESE 00:09:23 58° ESE 00:12:07 10° ENE
STARLINK-1312 3.3 00:09:13 58° S 00:09:35 62° SE 00:13:18 10° ENE
STARLINK-1257 3.0 00:10:14 60° ESE 00:10:14 60° ESE 00:13:02 10° ENE
STARLINK-1256 3.0 00:11:11 62° ESE 00:11:11 62° ESE 00:13:59 10° ENE
STARLINK-58 3.6 00:11:42 43° ESE 00:11:42 43° ESE 00:14:16 10° ENE
STARLINK-1213 2.9 00:12:02 64° ESE 00:12:02 64° ESE 00:14:52 10° ENE
STARLINK-1263 2.9 00:12:53 65° ESE 00:12:53 65° ESE 00:15:46 10° ENE
Cosmos 2084 Rocket 3.5 00:08:59 10° NW 00:13:26 65° SW 00:14:58 38° SSE
STARLINK-1259 2.9 00:13:47 68° ESE 00:13:47 68° ESE 00:16:42 10° ENE
STARLINK-1265 2.8 00:14:10 69° ESE 00:14:10 69° ESE 00:17:08 10° ENE
STARLINK-1285 2.8 00:14:38 70° ESE 00:14:38 70° ESE 00:17:35 10° ENE
SL-16 R/B 3.2 00:10:24 12° SE 00:15:59 52° ENE 00:21:58 10° N
Cosmos 2298 Rocket 4.2 00:10:55 10° NNW 00:16:15 73° ENE 00:19:50 21° SSE
STARLINK-1296 2.8 00:16:22 74° SE 00:16:22 74° SE 00:19:24 10° ENE
Cosmos 1758 Rocket 3.6 00:15:28 41° SSW 00:16:53 70° W 00:21:20 10° N
STARLINK-1260 2.7 00:17:14 76° SE 00:17:14 76° SE 00:20:18 10° ENE
STARLINK-1318 2.7 00:18:06 77° SE 00:18:06 77° SE 00:21:12 10° ENE
STARLINK-75 2.9 00:18:02 61° WSW 00:18:30 81° NNW 00:21:46 10° ENE
STARLINK-1275 2.7 00:18:59 79° SSE 00:18:59 79° SSE 00:22:07 10° ENE
STARLINK-48 4.0 00:19:05 40° SSE 00:19:17 40° SE 00:22:57 10° ENE
STARLINK-1309 2.7 00:19:50 80° SSE 00:19:52 80° SSE 00:23:00 10° ENE
STARLINK-1282 2.7 00:20:42 81° S 00:20:46 81° SSE 00:23:54 10° ENE
IRAS Rocket 4.2 00:18:06 28° SSE 00:21:12 85° WSW 00:26:45 10° NNW
STARLINK-1283 3.5 00:20:03 42° SW 00:21:22 79° SSE 00:25:30 10° ENE
STARLINK-1313 2.7 00:21:38 75° WSW 00:21:52 89° NNW 00:25:01 10° ENE
STARLINK-80 3.2 00:21:07 49° SW 00:22:02 78° SSE 00:25:51 10° ENE
CZ-4 R/B 4.5 00:18:18 10° N 00:22:48 44° WNW 00:24:50 28° WSW
STARLINK-1279 2.7 00:22:33 73° WSW 00:22:48 87° NW 00:25:56 10° ENE
STARLINK-1298 2.7 00:23:16 78° SW 00:23:26 85° SSE 00:26:34 10° ENE
STARLINK-1293 2.7 00:24:09 76° SW 00:24:22 86° SSE 00:27:30 10° ENE
SL-16 R/B 3.5 00:22:44 19° SSE 00:25:42 30° ESE 00:30:35 10° NE
Cosmos 2208 Rocket 4.1 00:23:37 32° SSW 00:26:05 75° WNW 00:31:29 10° NNE
STARLINK-1255 2.7 00:25:54 73° WSW 00:26:10 89° SSE 00:29:18 10° ENE
STARLINK-22 2.8 00:26:16 61° WSW 00:26:46 86° NNW 00:29:59 10° ENE
STARLINK-1297 3.1 00:26:32 52° SW 00:27:20 80° SSE 00:30:57 10° ENE
STARLINK 1040 4.4 00:26:21 19° WNW 00:27:30 28° NNW 00:29:48 10° NE
STARLINK-1311 2.7 00:28:27 65° W 00:28:45 75° NNW 00:31:43 10° ENE
Cosmos 2285 Rocket 4.3 00:22:46 10° NNW 00:28:53 51° WSW 00:31:54 29° SSW
MOZ.5/SAFIR/RUBIN 5/SL-8 3.9 00:29:16 25° SSE 00:31:59 73° ENE 00:36:38 10° N
CZ-2D R/B 2.8 00:27:02 10° NNE 00:32:00 43° E 00:35:02 22° SSE
USA 81 4.4 00:30:17 30° SW 00:32:37 52° W 00:37:48 10° N
Cosmos-2242 3.3 00:29:00 10° NNW 00:33:08 51° W 00:34:23 37° SW
USA 215 3.4 00:28:06 15° SSE 00:33:27 50° SW 00:39:48 10° WNW
Meteor 2-10 Rocket 4.3 00:28:54 10° NNW 00:33:33 36° W 00:35:15 28° SW
Cosmos 1953 Rocket 3.5 00:33:32 37° SSW 00:35:14 80° W 00:39:40 10° N
Cosmos 2221 3.7 00:31:51 10° N 00:35:58 38° ENE 00:39:27 13° SE
STARLINK-42 3.4 00:36:26 33° W 00:37:33 57° NNW 00:40:39 10° ENE
BREEZE-M R/B 3.4 00:32:02 10° W 00:37:43 60° N 00:40:47 10° ENE
STARLINK-1029 2.8 00:39:04 61° S 00:39:20 65° SSE 00:42:28 10° ENE
STARLINK-34 2.7 00:40:02 63° SW 00:40:28 86° SSE 00:43:33 10° ENE
GP-B 3.1 00:36:22 10° N 00:40:51 81° E 00:42:58 31° S
STARLINK-60 2.9 00:37:47 10° WNW 00:40:59 82° NNE 00:44:10 10° ESE
CZ-4C R/B 3.7 00:38:34 24° SSE 00:41:09 76° ENE 00:45:37 10° N
STARLINK-41 3.4 00:40:11 33° W 00:41:16 55° NNW 00:44:18 10° ENE
Cosmos 1315 Rocket 3.8 00:39:03 10° N 00:42:48 42° ENE 00:45:44 15° SE
Cosmos 1842 Rocket 4.1 00:38:34 10° N 00:42:59 55° ENE 00:46:04 18° SSE
STARLINK-1272 3.2 00:42:02 35° WSW 00:43:24 78° NNW 00:46:57 10° ENE
STARLINK-1319 4.5 00:42:43 30° SSE 00:43:32 33° SE 00:47:17 10° ENE
Cosmos 540 Rocket 3.9 00:41:07 27° SW 00:43:46 54° WNW 00:48:49 10° NNE
STARLINK-62 2.7 00:43:45 56° WSW 00:44:18 88° NW 00:47:22 10° ENE
Cosmos 2360 Rocket 4.1 00:44:09 10° SE 00:48:08 20° E 00:52:07 10° NE
STARLINK-1277 4.4 00:47:31 31° S 00:48:30 36° SE 00:52:18 10° ENE
Helios 1B rocket 4.0 00:45:07 10° N 00:48:30 25° WNW 00:50:24 18° WSW
STARLINK-1307 3.4 00:46:48 29° WSW 00:48:34 76° NNW 00:52:17 10° ENE
STARLINK-1290 3.4 00:50:11 27° WSW 00:52:05 73° NNW 00:55:49 10° ENE
STARLINK-1276 4.3 00:52:19 31° S 00:53:28 39° SE 00:57:21 10° ENE
Cosmos 2058 4.4 00:50:48 15° SSE 00:53:42 31° E 00:57:27 10° NNE
Shenzhou-11 Module 4.2 00:56:40 11° ESE 00:56:40 11° ESE 00:56:53 10° ESE
Cosmos 1980 Rocket 2.6 00:51:50 23° SW 00:55:16 56° WNW 01:00:51 10° NNE
Cosmos 2074 Rocket 4.0 00:51:22 24° S 00:55:25 89° E 01:01:45 10° N
STARLINK-1305 4.2 00:57:04 31° S 00:58:24 42° SE 01:02:19 10° ENE
STARLINK-1306 4.1 00:57:24 32° S 00:58:50 45° SE 01:02:52 10° ENE
STARLINK-1317 3.8 00:56:33 21° WSW 00:59:05 65° NNW 01:02:59 10° ENE
Cosmos 1455 4.1 00:57:14 10° NW 00:59:34 16° W 01:00:05 15° W
CZ-4B R/B 4.0 00:55:44 10° NNE 01:00:55 57° E 01:04:34 19° S
STARLINK-55 4.2 01:00:33 14° W 01:03:03 39° NNW 01:06:06 10° NE
STARLINK-1274 3.6 01:00:56 21° W 01:03:06 60° NNW 01:06:38 10° ENE
STARLINK-1262 4.1 01:01:53 31° SSW 01:03:23 45° SE 01:07:22 10° ENE
STARLINK-1291 3.8 01:04:15 18° W 01:06:49 59° NNW 01:10:31 10° ENE
Meteor 1-11 4.4 01:03:54 24° SSW 01:07:11 59° WNW 01:12:43 10° N
STARLINK-1300 4.0 01:06:40 30° SSW 01:08:21 49° SE 01:12:21 10° ENE
ADEOS II 3.2 01:05:10 10° NNE 01:10:04 38° E 01:14:40 11° SSE
STARLINK-1264 3.9 01:07:26 17° W 01:10:08 57° NNW 01:13:51 10° ENE
Cosmos 2263 Rocket 2.2 01:05:44 10° NNW 01:11:16 62° WSW 01:15:58 14° S
STARLINK-1295 3.9 01:11:26 28° SSW 01:13:17 53° SE 01:17:20 10° ENE
IRS-1D 4.2 01:08:16 10° NNE 01:13:24 51° E 01:17:31 15° S
NOSS 2-1 (C) 2.9 01:12:04 32° SSW 01:13:28 71° SE 01:17:04 10° NE
STARLINK-1267 3.9 01:10:39 16° W 01:13:31 55° NNW 01:17:11 10° ENE
STARLINK-29 3.0 01:10:34 10° WNW 01:13:47 79° NNE 01:16:57 10° ESE
UNK 3.8 01:11:40 23° S 01:14:26 60° W 01:18:59 10° NNW
STARLINK-28 4.5 01:11:39 10° W 01:14:38 35° NNW 01:17:37 10° NE
AQUA 3.9 01:10:21 10° NNE 01:15:09 73° ESE 01:18:24 20° S
SL-4 R/B 2.3 01:10:36 10° WNW 01:15:23 63° SSW 01:20:00 10° SE
STARLINK-64 3.1 01:14:12 28° WSW 01:15:59 85° SSE 01:19:35 10° ENE
USA 229 DEB 3.9 01:09:53 10° NW 01:17:07 69° SW 01:24:41 10° SSE
USA 229 3.9 01:10:00 10° NW 01:17:14 69° SW 01:24:47 10° SSE
NOSS 3-1 (C) 4.1 01:10:32 10° NW 01:18:01 65° WSW 01:26:33 10° SSE
STARLINK-1287 3.8 01:16:12 27° SSW 01:18:15 58° SE 01:22:19 10° ENE
NOSS 2-1 (D) 2.9 01:16:50 31° SSW 01:18:21 81° SE 01:21:59 10° NE
NPP 3.6 01:13:40 10° NNE 01:19:05 87° WNW 01:22:54 20° SSW
ARIANE 5 R/B 4.1 01:15:27 10° NE 01:19:45 28° E 01:23:59 10° SSE
STARLINK-1207 4.1 01:17:09 13° W 01:20:18 51° NNW 01:23:59 10° ENE
Cosmos 2184 Rocket 4.1 01:16:26 21° SSW 01:20:36 63° WNW 01:26:45 10° N
CZ-4C R/B 4.0 01:18:25 10° W 01:23:06 28° NNW 01:28:33 10° NNE
STARLINK-1266 4.1 01:20:25 12° W 01:23:43 49° NNW 01:27:23 10° ENE
BREEZE-M DEB (TANK) 1.6 01:23:14 32° W 01:24:00 79° NNW 01:26:59 10° ENE
Cosmos 1892 3.0 01:21:53 19° S 01:24:26 61° E 01:28:11 10° NNE
NOSS 3-1 (A) 4.1 01:18:41 10° NW 01:26:13 81° SW 01:34:53 10° SSE
STARLINK-1299 3.6 01:24:05 22° SW 01:26:43 75° SSE 01:30:59 10° ENE
STARLINK-1284 4.2 01:23:40 11° W 01:27:07 48° NNW 01:30:47 10° ENE
STARLINK-1302 3.6 01:25:46 23° SW 01:28:11 67° SSE 01:32:19 10° ENE
STARLINK-1320 4.2 01:25:20 10° NW 01:28:19 42° NNE 01:31:19 10° E
BREEZE-M DEB (TANK) 1.8 01:26:21 10° WNW 01:28:41 53° N 01:31:19 10° E
STARLINK-1322 4.2 01:25:41 10° NW 01:28:41 42° NNE 01:31:41 10° E
Cosmos 1610 Rocket 4.5 01:24:10 18° SSW 01:28:52 79° W 01:35:07 10° N
STARLINK-1324 4.2 01:26:00 10° NW 01:29:00 42° NNE 01:32:00 10° E
STARLINK-1294 4.2 01:26:17 10° NW 01:29:19 42° NNE 01:32:20 10° E
STARLINK-1261 4.2 01:26:41 10° NW 01:29:41 42° NNE 01:32:41 10° E
STARLINK-1325 4.2 01:27:02 10° NW 01:30:02 43° NNE 01:33:03 10° E
STARLINK-1333 4.2 01:27:24 10° NW 01:30:24 43° NNE 01:33:24 10° E
Cosmos 1869 3.3 01:26:40 10° NNW 01:30:30 60° W 01:33:00 20° S
STARLINK-1258 4.3 01:26:59 10° W 01:30:35 46° NNW 01:34:13 10° ENE
STARLINK-1334 4.2 01:27:42 10° NW 01:30:41 43° NNE 01:33:41 10° E
STARLINK-1326 4.2 01:28:00 10° NW 01:31:01 43° NNE 01:34:01 10° E
STARLINK-1323 4.2 01:28:23 10° NW 01:31:25 43° NNE 01:34:24 10° E
STARLINK-1349 4.2 01:28:41 10° NW 01:31:42 43° NNE 01:34:42 10° E
STARLINK-1336 4.2 01:29:01 10° NW 01:32:02 43° NNE 01:35:02 10° E
STARLINK-1331 4.1 01:29:24 10° NW 01:32:25 44° NNE 01:35:25 10° E
STARLINK-1344 4.1 01:29:41 10° NW 01:32:43 44° NNE 01:35:44 10° E
STARLINK-1343 4.1 01:30:04 10° NW 01:33:06 44° NNE 01:36:07 10° E
STARLINK-1273 3.6 01:30:32 22° SW 01:33:09 72° SSE 01:37:17 10° ENE
STARLINK-1346 4.1 01:30:21 10° NW 01:33:24 45° NNE 01:36:27 10° E
STARLINK-1328 4.1 01:30:47 10° NW 01:33:49 44° NNE 01:36:50 10° E
Cosmos 2322 Rocket 2.2 01:29:42 19° SSW 01:33:50 82° ESE 01:39:29 10° NNE
STARLINK-1292 4.3 01:30:25 10° W 01:34:02 45° NNW 01:37:40 10° ENE
STARLINK-1354 4.1 01:31:05 10° NW 01:34:06 44° NNE 01:37:07 10° E
STARLINK-1347 4.1 01:31:21 10° NW 01:34:23 45° NNE 01:37:24 10° E
STARLINK-1357 4.1 01:31:47 10° NW 01:34:50 45° NNE 01:37:51 10° E
STARLINK-1335 4.1 01:32:05 10° NW 01:35:07 45° NNE 01:38:08 10° E
STARLINK-1327 4.1 01:32:26 10° NW 01:35:27 45° NNE 01:38:28 10° E
In-Cosmos 22 Rocket 4.2 01:31:02 16° S 01:35:35 86° E 01:41:05 10° NNE
STARLINK-1340 4.1 01:32:44 10° NW 01:35:45 45° NNE 01:38:46 10° E
STARLINK-1356 4.0 01:33:06 10° NW 01:36:09 46° NNE 01:39:10 10° E
STARLINK-1345 4.0 01:33:25 10° NW 01:36:27 46° NNE 01:39:29 10° E
STARLINK-1355 4.0 01:33:47 10° NW 01:36:49 46° NNE 01:39:50 10° E
STARLINK-1321 4.0 01:34:08 10° NW 01:37:10 46° NNE 01:40:11 10° E
STARLINK-1358 4.0 01:34:31 10° NW 01:37:33 46° NNE 01:40:35 10° E
STARLINK-1332 4.0 01:34:48 10° NW 01:37:50 47° NNE 01:40:52 10° E
STARLINK-1288 3.6 01:35:19 20° SW 01:38:07 77° SSE 01:42:16 10° ENE
STARLINK-1348 4.0 01:35:08 10° NW 01:38:11 47° NNE 01:41:13 10° E
STARLINK-61 3.6 01:35:51 22° SW 01:38:13 60° SE 01:42:05 10° ENE
STARLINK-1330 4.0 01:35:28 10° NW 01:38:30 47° NNE 01:41:32 10° E
STARLINK-1363 4.0 01:35:48 10° NW 01:38:50 47° NNE 01:41:52 10° E
STARLINK-1337 4.0 01:36:10 10° NW 01:39:13 47° NNE 01:42:15 10° E
STARLINK-1342 4.0 01:36:29 10° NW 01:39:32 48° NNE 01:42:34 10° E
STARLINK-1268 4.4 01:36:52 10° W 01:39:44 34° NNW 01:42:36 10° NE
STARLINK-1364 3.9 01:36:49 10° NW 01:39:52 48° NNE 01:42:55 10° E
STARLINK-1376 3.9 01:37:09 10° NW 01:40:12 48° NNE 01:43:14 10° E
STARLINK-1360 3.9 01:37:30 10° NW 01:40:33 48° NNE 01:43:35 10° E
STARLINK-1361 3.9 01:37:51 10° NW 01:40:54 48° NNE 01:43:56 10° E
STARLINK-1289 4.4 01:37:18 10° W 01:40:55 43° NNW 01:44:31 10° ENE
Resurs 1-4 Rocket 2.6 01:35:50 10° N 01:40:57 50° WNW 01:44:54 17° SW
STARLINK-1367 3.9 01:38:06 10° NW 01:41:12 49° NNE 01:44:16 10° E
STARLINK-1366 3.9 01:38:29 10° NW 01:41:33 49° NNE 01:44:35 10° E
STARLINK-54 4.5 01:40:39 18° S 01:42:33 29° SE 01:45:43 10° ENE
STARLINK-1308 3.6 01:40:08 18° SW 01:43:08 83° SSE 01:47:18 10° ENE
Cosmos 1076 Rocket 3.5 01:39:51 17° SSW 01:43:12 83° W 01:47:36 10° N
STARLINK-1303 4.5 01:40:49 10° W 01:44:24 42° NNW 01:48:00 10° ENE
Cosmos 2151 4.0 01:40:56 10° SSE 01:45:00 44° E 01:49:06 10° NNE
STARLINK-1316 4.5 01:42:08 10° W 01:45:01 33° NNW 01:47:54 10° NE
Cosmos 1125 Rocket 4.2 01:40:23 10° NW 01:45:06 36° WSW 01:48:54 15° SSW
H-2A R/B 3.7 01:42:59 10° SE 01:47:04 37° ENE 01:51:14 10° N
STARLINK-58 4.2 01:44:16 10° W 01:47:16 38° NNW 01:50:17 10° NE
STARLINK-79 4.5 01:46:45 17° S 01:48:52 30° SE 01:52:05 10° ENE
STARLINK-1338 4.5 01:44:58 10° WNW 01:48:53 51° NNE 01:52:47 10° E
STARLINK-52 2.9 01:45:54 10° WNW 01:49:05 63° SSW 01:52:15 10° SE
STARLINK-78 4.4 01:48:20 17° SSW 01:50:29 31° SE 01:53:45 10° ENE
Cosmos 962 Rocket 4.5 01:44:45 12° S 01:50:33 89° W 01:56:49 10° N
STARLINK-57 4.3 01:49:58 17° SSW 01:52:11 34° SE 01:55:29 10° ENE
Cosmos 1408 2.6 01:49:31 14° S 01:52:39 80° E 01:56:20 10° N
STARLINK-1304 3.6 01:49:41 15° WSW 01:53:04 87° NNW 01:57:14 10° ENE
STARLINK-49 4.3 01:51:26 17° SSW 01:53:42 33° SE 01:56:59 10° ENE
Cosmos 2154 Rocket 4.3 01:49:51 15° SSW 01:54:58 54° WNW 02:01:05 10° N
STARLINK-27 4.3 01:53:02 16° SSW 01:55:21 34° SE 01:58:41 10° ENE
GEOS 3 Rocket 3.8 01:51:22 10° SSE 01:56:24 52° SW 02:01:34 10° NW
STARLINK-74 4.2 01:54:35 16° SSW 01:56:58 35° SE 02:00:19 10° ENE
STARLINK-1371 4.3 01:53:14 10° WNW 01:57:08 55° NNE 02:01:02 10° E
STARLINK-48 4.1 01:54:02 10° W 01:57:51 52° NNW 02:01:40 10° ENE
STARLINK-39 4.2 01:56:10 16° SSW 01:58:36 36° SE 02:01:58 10° ENE
Cosmos 1825 2.5 01:55:32 10° S 01:59:14 62° E 02:02:58 10° NNE
STARLINK-1278 3.8 01:55:21 12° WSW 01:59:16 74° NNW 02:03:32 10° ENE
Cosmos 2237 4.4 01:54:31 13° SSW 01:59:42 74° ESE 02:05:26 10° NNE
SL-16 R/B 3.4 01:55:29 14° SSW 01:59:52 30° W 02:05:14 10° NW
STARLINK-31 4.1 01:57:45 16° SSW 02:00:15 37° SE 02:03:38 10° ENE
STARLINK-1280 3.9 01:57:08 12° WSW 02:01:07 73° NNW 02:05:23 10° ENE
SL-08 R/B 3.2 01:56:52 10° SSE 02:01:30 83° WSW 02:06:08 10° NNW
STARLINK-1341 4.2 01:57:37 10° WNW 02:01:33 58° NNE 02:05:28 10° ESE
STARLINK-69 3.9 01:59:20 16° SSW 02:01:53 41° SE 02:05:17 10° ENE
STARLINK-21 4.0 02:00:55 15° SSW 02:03:31 40° SE 02:06:56 10° ENE
IRS-P3 4.1 01:59:08 10° NNE 02:04:30 85° WNW 02:09:50 10° SSW
STARLINK-45 3.8 02:02:35 15° SSW 02:05:17 45° SE 02:08:46 10° ENE
Cosmos 1844 Rocket 2.8 02:00:13 10° NNW 02:05:52 83° ENE 02:11:27 10° SSE
STARLINK-1374 4.1 02:02:05 10° WNW 02:06:04 61° NNE 02:10:01 10° ESE
NOSS 2-1 (E) 4.0 02:04:58 12° WSW 02:07:55 39° NW 02:11:31 10° NNE
STARLINK-76 3.9 02:05:36 15° SSW 02:08:23 44° SE 02:11:52 10° ENE
STARLINK-70 3.8 02:05:59 14° SW 02:08:51 47° SE 02:12:23 10° ENE
SL-16 R/B 2.8 02:04:36 12° SW 02:09:35 48° NW 02:15:06 10° NNE
STARLINK-1286 3.8 02:05:37 10° WSW 02:09:45 70° NNW 02:13:56 10° ENE
STARLINK-23 3.8 02:07:11 14° SSW 02:10:01 45° SE 02:13:31 10° ENE
STARLINK-1339 4.0 02:06:15 10° WNW 02:10:12 63° NNE 02:14:08 10° ESE
STARLINK-32 3.8 02:08:37 14° SW 02:11:28 46° SE 02:14:55 10° ENE
CZ-2D R/B 3.3 02:07:27 10° N 02:11:53 29° WNW 02:16:18 10° WSW
STARLINK-1281 3.8 02:08:51 10° WSW 02:12:59 70° NNW 02:17:08 10° ENE
STARLINK-40 3.8 02:10:18 14° SW 02:13:15 48° SE 02:16:46 10° ENE
Cosmos 2221 4.0 02:09:56 10° NW 02:13:17 22° W 02:16:17 11° SW
COSMOS 2428 4.2 02:09:14 10° SSE 02:14:10 31° ESE 02:19:06 10° NE
STARLINK-1377 4.0 02:10:47 10° WNW 02:14:46 67° NNE 02:18:46 10° ESE
STARLINK-44 3.7 02:11:49 13° SW 02:14:49 50° SE 02:18:22 10° ENE
CZ-4C R/B 4.0 02:11:29 10° SSE 02:15:02 52° ENE 02:18:34 10° N
STARLINK-1051 4.4 02:11:51 12° SSW 02:15:23 41° SE 02:19:18 10° ENE
STARLINK-1029 4.5 02:12:31 10° W 02:15:27 33° NNW 02:18:23 10° NE
Cosmos 773 Rocket 4.1 02:11:08 10° SSW 02:16:23 85° ESE 02:21:43 10° NNE
STARLINK-37 3.6 02:13:33 13° SW 02:16:39 55° SE 02:20:12 10° ENE
STARLINK-1310 3.9 02:13:52 10° WSW 02:17:59 66° NNW 02:22:08 10° ENE
STARLINK-36 3.6 02:14:56 13° SW 02:18:04 52° SE 02:21:37 10° ENE
FALCON 9 DEB 3.1 02:15:00 10° WNW 02:18:24 58° SW 02:21:48 10° SE
STARLINK-1353 3.9 02:15:07 10° WNW 02:19:07 71° NNE 02:23:08 10° ESE
STARLINK-63 3.5 02:18:10 12° SW 02:21:26 58° SE 02:24:59 10° ENE
STARLINK-35 3.5 02:19:32 12° SW 02:22:47 57° SE 02:26:18 10° ENE
STARLINK-1319 4.0 02:18:51 10° WSW 02:22:57 62° NNW 02:27:05 10° ENE
STARLINK-1375 3.8 02:19:30 10° WNW 02:23:30 74° NNE 02:27:31 10° ESE
STARLINK-51 3.5 02:21:14 11° SW 02:24:35 59° SE 02:28:09 10° ENE
STARLINK-1028 4.2 02:21:25 11° SW 02:25:18 48° SE 02:29:18 10° ENE
Cosmos 2366 rocket 4.1 02:19:07 10° S 02:25:22 90° SE 02:31:45 10° N
STARLINK-30 3.5 02:22:49 11° SW 02:26:16 61° SE 02:29:51 10° ENE
Cosmos 2278 Rocket 4.3 02:22:31 10° NNW 02:27:37 33° NE 02:32:41 10° ESE
STARLINK-72 3.4 02:24:13 11° SW 02:27:38 62° SE 02:31:11 10° ENE
STARLINK-1350 3.7 02:23:50 10° WNW 02:27:52 79° NNE 02:31:53 10° ESE
STARLINK-1277 4.1 02:23:52 10° WSW 02:27:58 59° NNW 02:32:04 10° ENE
Shenzhou-11 Module 2.6 02:26:49 10° WSW 02:28:55 25° S 02:31:02 10° SE
STARLINK-1021 4.1 02:26:16 10° SW 02:30:17 52° SE 02:34:20 10° ENE
Cosmos 2058 4.3 02:27:07 10° SW 02:30:38 25° WNW 02:34:10 10° NNW
Cosmos 1933 3.7 02:26:43 10° N 02:30:46 71° E 02:34:45 10° SSE
STARLINK-59 3.3 02:27:27 10° SW 02:30:59 69° SSE 02:34:33 10° ENE
Cosmos 2360 Rocket 2.3 02:25:56 10° SW 02:31:32 69° WNW 02:37:11 10° NNE
STARLINK-1352 3.6 02:28:00 10° WNW 02:32:02 83° NNE 02:36:02 10° ESE
STARLINK-1010 4.0 02:28:23 10° SW 02:32:32 57° SE 02:36:42 10° ENE
STARLINK-56 3.4 02:29:09 10° SW 02:32:44 69° SSE 02:36:22 10° ENE
STARLINK-1276 4.2 02:28:53 10° W 02:32:59 56° NNW 02:37:05 10° ENE
Cosmos 1328 Rocket 3.6 02:29:53 10° N 02:34:18 85° E 02:38:40 10° S
STARLINK-73 3.3 02:30:46 10° SW 02:34:22 71° SSE 02:38:00 10° ENE
STARLINK-1019 4.0 02:31:10 10° SW 02:35:13 56° SE 02:39:17 10° ENE
STARLINK-38 3.3 02:32:24 10° SW 02:36:00 73° SSE 02:39:37 10° ENE
STARLINK-1368 3.6 02:32:41 10° WNW 02:36:45 87° NE 02:40:46 10° ESE
STARLINK-65 3.3 02:34:01 10° SW 02:37:38 75° SSE 02:41:17 10° ENE
STARLINK-1305 4.3 02:33:52 10° W 02:37:57 54° NNW 02:42:02 10° ENE
STARLINK-68 3.3 02:34:41 10° SW 02:38:20 80° SSE 02:42:00 10° ENE
STARLINK-1306 4.3 02:34:31 10° W 02:38:38 52° NNW 02:42:46 10° ENE
STARLINK-53 3.3 02:35:44 10° SW 02:39:21 80° SSE 02:42:59 10° ENE
STARLINK-1012 3.9 02:36:07 10° SW 02:40:11 60° SE 02:44:18 10° ENE
Cosmos 1980 Rocket 4.4 02:37:45 10° WNW 02:40:37 14° NW 02:43:29 10° N
STARLINK-1369 3.5 02:37:08 10° WNW 02:41:11 88° SSW 02:45:13 10° ESE
STARLINK-50 3.4 02:37:50 10° SW 02:41:37 76° SSE 02:45:26 10° ENE
STARLINK-1262 4.3 02:38:55 10° W 02:42:59 51° NNW 02:47:03 10° ENE
Cosmos 2333 Rocket 2.6 02:39:26 10° SSW 02:45:00 63° ESE 02:50:38 10° NNE
STARLINK-1372 3.5 02:41:18 10° WNW 02:45:19 83° SSW 02:49:17 10° ESE
